Weather History for KMFV - August, 2014

Change the Weather History Date:

Sunday, August 24, 2014

  Actual Average (KWAL) Record (KWAL)
Temperature  
Mean Temperature 68 °F 75 °F  
Max Temperature 75 °F 83 °F 92 °F (1995)
Min Temperature 62 °F 67 °F 52 °F (1994)
Degree Days  
Heating Degree Days 0    
Month to date heating degree days  
Since 1 June heating degree days  
Since 1 July heating degree days  
Cooling Degree Days 4    
Month to date cooling degree days  
Year to date cooling degree days  
Since 1 June cooling degree days  
Growing Degree Days 18 (Base 50)    
Moisture  
Dew Point 59 °F    
Average Humidity 71    
Maximum Humidity 88    
Minimum Humidity 50    
Precipitation  
Precipitation 0.00 in 0.13 in 0.05 in (2001)
Month to date precipitation 3.37  
Year to date precipitation 26.57  
Sea Level Pressure  
Sea Level Pressure 30.08 in    
Wind  
Wind Speed 9 mph (NE)    
Max Wind Speed 22 mph    
Max Gust Speed 28 mph    
Visibility 10 miles    
Events      
T = Trace of Precipitation, MM = Missing Value Source: NWS Daily Summary

Daily Weather History Graph

Daily Weather History Graph

Search for Another Location

Airport or City:

Trip Planner

Search our weather history database for the weather conditions in past years. The results will help you decide how hot, cold, wet, or windy it might be!

Date:

Astronomy

Aug. 24, 2014 Rise Set
Actual Time 6:26 AM EDT 7:43 PM EDT
Civil Twilight 5:59 AM EDT 8:10 PM EDT
Nautical Twilight 5:26 AM EDT 8:43 PM EDT
Astronomical Twilight 4:52 AM EDT 9:17 PM EDT
Moon 5:34 AM EDT (8/24) 7:01 PM EDT (8/24)
Length of Visible Light 14h 11m
Length of Day
13h 17m
Waning Crescent, 1% of the Moon is Illuminated
Aug 24
Waning Crescent
Aug 25
New
Sep 2
First Quarter
Sep 8
Full
Sep 15
Last Quarter

Hourly Weather History & Observations

Time (EDT) Temp. Dew Point Humidity Pressure Visibility Wind Dir Wind Speed Gust Speed Precip Events Conditions
12:15 AM 69.8 °F 60.8 °F 73% 30.04 in 10.0 mi ENE 9.2 mph - N/A   Mostly Cloudy
12:35 AM 69.8 °F 60.8 °F 73% 30.05 in 10.0 mi ENE 10.4 mph 17.3 mph N/A   Overcast
12:55 AM 69.8 °F 60.8 °F 73% 30.04 in 10.0 mi ENE 10.4 mph - N/A   Overcast
1:15 AM 69.8 °F 60.8 °F 73% 30.05 in 10.0 mi ENE 8.1 mph - N/A   Mostly Cloudy
1:35 AM 68.0 °F 60.8 °F 78% 30.05 in 10.0 mi ENE 6.9 mph - N/A   Scattered Clouds
1:55 AM 68.0 °F 62.6 °F 83% 30.05 in 10.0 mi ENE 6.9 mph - N/A   Scattered Clouds
2:15 AM 68.0 °F 62.6 °F 83% 30.05 in 10.0 mi NE 6.9 mph - N/A   Mostly Cloudy
2:35 AM 69.8 °F 62.6 °F 78% 30.05 in 10.0 mi NE 6.9 mph - N/A   Overcast
2:55 AM 69.8 °F 62.6 °F 78% 30.05 in 10.0 mi ENE 8.1 mph - N/A   Overcast
3:15 AM 69.8 °F 62.6 °F 78% 30.04 in 10.0 mi NE 8.1 mph - N/A   Overcast
3:35 AM 68.0 °F 62.6 °F 83% 30.04 in 10.0 mi NNE 4.6 mph - N/A   Overcast
3:55 AM 68.0 °F 62.6 °F 83% 30.04 in 10.0 mi NE 4.6 mph - N/A   Mostly Cloudy
4:15 AM 68.0 °F 62.6 °F 83% 30.04 in 10.0 mi NE 5.8 mph - N/A   Mostly Cloudy
4:35 AM 68.0 °F 60.8 °F 78% 30.03 in 10.0 mi NE 5.8 mph - N/A   Scattered Clouds
4:55 AM 68.0 °F 60.8 °F 78% 30.03 in 10.0 mi NE 4.6 mph - N/A   Scattered Clouds
5:15 AM 64.4 °F 60.8 °F 88% 30.03 in 10.0 mi NE 4.6 mph - N/A   Scattered Clouds
5:35 AM 64.4 °F 60.8 °F 88% 30.04 in 10.0 mi NNE 4.6 mph - N/A   Clear
5:55 AM 64.4 °F 60.8 °F 88% 30.04 in 10.0 mi NNE 5.8 mph - N/A   Scattered Clouds
6:15 AM 64.4 °F 60.8 °F 88% 30.05 in 10.0 mi NNE 4.6 mph - N/A   Clear
6:35 AM 64.4 °F 59.0 °F 83% 30.05 in 10.0 mi NNE 5.8 mph - N/A   Clear
6:55 AM 64.4 °F 59.0 °F 83% 30.06 in 10.0 mi NNE 4.6 mph - N/A   Clear
7:15 AM 64.4 °F 59.0 °F 83% 30.07 in 10.0 mi NNE 5.8 mph - N/A   Clear
7:35 AM 66.2 °F 59.0 °F 78% 30.08 in 10.0 mi NNE 5.8 mph - N/A   Clear
7:55 AM 68.0 °F 59.0 °F 73% 30.08 in 10.0 mi NNE 6.9 mph - N/A   Clear
8:15 AM 68.0 °F 59.0 °F 73% 30.09 in 10.0 mi NNE 8.1 mph - N/A   Clear
8:35 AM 69.8 °F 60.8 °F 73% 30.09 in 10.0 mi NE 8.1 mph - N/A   Clear
8:55 AM 69.8 °F 60.8 °F 73% 30.09 in 10.0 mi NE 8.1 mph 16.1 mph N/A   Clear
9:15 AM 71.6 °F 59.0 °F 64% 30.09 in 10.0 mi NE 8.1 mph - N/A   Clear
9:35 AM 71.6 °F 59.0 °F 64% 30.09 in 10.0 mi NE 11.5 mph 16.1 mph N/A   Scattered Clouds
9:55 AM 71.6 °F 59.0 °F 64% 30.10 in 10.0 mi NE 10.4 mph - N/A   Mostly Cloudy
10:15 AM 71.6 °F 59.0 °F 64% 30.10 in 10.0 mi NE 9.2 mph 18.4 mph N/A   Overcast
10:35 AM 73.4 °F 59.0 °F 61% 30.11 in 10.0 mi NNE 10.4 mph 17.3 mph N/A   Overcast
10:55 AM 73.4 °F 60.8 °F 65% 30.11 in 10.0 mi ENE 13.8 mph 20.7 mph N/A   Overcast
11:15 AM 71.6 °F 59.0 °F 64% 30.10 in 10.0 mi NE 11.5 mph 17.3 mph N/A   Overcast
11:35 AM 73.4 °F 57.2 °F 57% 30.10 in 10.0 mi ENE 19.6 mph 23.0 mph N/A   Mostly Cloudy
11:55 AM 73.4 °F 57.2 °F 57% 30.11 in 10.0 mi ENE 21.9 mph 27.6 mph N/A   Mostly Cloudy
12:15 PM 73.4 °F 57.2 °F 57% 30.10 in 10.0 mi NNE 10.4 mph 23.0 mph N/A   Mostly Cloudy
12:35 PM 73.4 °F 55.4 °F 53% 30.11 in 10.0 mi NE 18.4 mph 23.0 mph N/A   Scattered Clouds
12:55 PM 73.4 °F 57.2 °F 57% 30.11 in 10.0 mi NE 9.2 mph 25.3 mph N/A   Mostly Cloudy
1:15 PM 75.2 °F 55.4 °F 50% 30.11 in 10.0 mi NE 16.1 mph 21.9 mph N/A   Mostly Cloudy
1:35 PM 75.2 °F 55.4 °F 50% 30.10 in 10.0 mi East 18.4 mph 24.2 mph N/A   Mostly Cloudy
1:55 PM 75.2 °F 55.4 °F 50% 30.11 in 10.0 mi NE 13.8 mph 23.0 mph N/A   Mostly Cloudy
2:15 PM 75.2 °F 55.4 °F 50% 30.10 in 10.0 mi ENE 15.0 mph 20.7 mph N/A   Scattered Clouds
2:35 PM 75.2 °F 55.4 °F 50% 30.11 in 10.0 mi NE 15.0 mph 23.0 mph N/A   Scattered Clouds
2:55 PM 75.2 °F 57.2 °F 53% 30.11 in 10.0 mi ENE 13.8 mph 23.0 mph N/A   Mostly Cloudy
3:15 PM 73.4 °F 57.2 °F 57% 30.11 in 10.0 mi NE 12.7 mph 20.7 mph N/A   Overcast
3:35 PM 73.4 °F 55.4 °F 53% 30.10 in 10.0 mi NE 15.0 mph 18.4 mph N/A   Overcast
3:55 PM 71.6 °F 57.2 °F 60% 30.10 in 10.0 mi ENE 12.7 mph 18.4 mph N/A   Overcast
4:15 PM 73.4 °F 57.2 °F 57% 30.09 in 10.0 mi ENE 16.1 mph - N/A   Mostly Cloudy
4:35 PM 73.4 °F 55.4 °F 53% 30.09 in 10.0 mi NE 15.0 mph 18.4 mph N/A   Mostly Cloudy
4:55 PM 73.4 °F 57.2 °F 57% 30.09 in 10.0 mi NE 9.2 mph - N/A   Scattered Clouds
5:15 PM 73.4 °F 55.4 °F 53% 30.10 in 10.0 mi NE 13.8 mph 19.6 mph N/A   Mostly Cloudy
5:35 PM 73.4 °F 55.4 °F 53% 30.09 in 10.0 mi NE 6.9 mph - N/A   Scattered Clouds
5:55 PM 73.4 °F 55.4 °F 53% 30.09 in 10.0 mi NNE 10.4 mph - N/A   Clear
6:15 PM 73.4 °F 55.4 °F 53% 30.09 in 10.0 mi NE 11.5 mph - N/A   Scattered Clouds
6:35 PM 71.6 °F 59.0 °F 64% 30.09 in 10.0 mi ENE 10.4 mph - N/A   Scattered Clouds
6:55 PM 71.6 °F 59.0 °F 64% 30.09 in 10.0 mi ENE 5.8 mph - N/A   Clear
7:15 PM 69.8 °F 59.0 °F 68% 30.09 in 10.0 mi NE 6.9 mph - N/A   Clear
7:35 PM 68.0 °F 59.0 °F 73% 30.09 in 10.0 mi NE 6.9 mph - N/A   Clear
7:55 PM 68.0 °F 59.0 °F 73% 30.09 in 10.0 mi NE 4.6 mph - N/A   Clear
8:15 PM 66.2 °F 59.0 °F 78% 30.10 in 10.0 mi NE 3.5 mph - N/A   Clear
8:35 PM 64.4 °F 59.0 °F 83% 30.10 in 10.0 mi NE 4.6 mph - N/A   Clear
8:55 PM 64.4 °F 59.0 °F 83% 30.10 in 10.0 mi NE 5.8 mph - N/A   Clear
9:15 PM 64.4 °F 59.0 °F 83% 30.10 in 10.0 mi NNE 4.6 mph - N/A   Clear
9:35 PM 64.4 °F 59.0 °F 83% 30.11 in 10.0 mi NNE 6.9 mph - N/A   Clear
9:55 PM 64.4 °F 59.0 °F 83% 30.10 in 10.0 mi NE 6.9 mph - N/A   Clear
10:15 PM 64.4 °F 59.0 °F 83% 30.10 in 10.0 mi NNE 4.6 mph - N/A   Clear
10:35 PM 62.6 °F 59.0 °F 88% 30.10 in 10.0 mi NNE 4.6 mph - N/A   Clear
10:55 PM 62.6 °F 59.0 °F 88% 30.10 in 10.0 mi NNE 6.9 mph - N/A   Clear
11:15 PM 62.6 °F 59.0 °F 88% 30.10 in 10.0 mi NNE 6.9 mph - N/A   Clear
11:35 PM 62.6 °F 59.0 °F 88% 30.10 in 10.0 mi NNE 6.9 mph - N/A   Clear
11:55 PM 62.6 °F 59.0 °F 88% 30.11 in 10.0 mi North 5.8 mph - N/A   Clear